This demonstration page uses our WeatherBlox Daily Observations layout. Learn more.

Left ArrowRight Arrow

Hourly Observations for February 24, 2019

Temp ( °F °C ) Dew Point ( °F °C ) Humidity (%) Winds ( mph kmh ) Pressure ( in mb ) Visibility ( mi km ) Precip ( " mm )
12:01 am 00:01 Cloudy 57 13.9 55 12.8 93 93 SSE 10 17 29.56 1001 10 16 N/A
12:10 am 00:10 Cloudy 57 13.9 55 12.8 93 93 SSE 10 17 29.55 1001 10 16 N/A
12:38 am 00:38 Cloudy 58 14.4 55 12.8 90 90 SSE 10 17 29.54 1000 10 16 0.01 0.25
12:53 am 00:53 Cloudy 58 14.4 55 12.8 90 90 SSE 10 17 29.54 1000 10 16 0.01 0.25
1:02 am 01:02 Cloudy 58 14.4 55 12.8 90 90 SSE 8 13 29.53 1000 10 16 N/A
1:41 am 01:41 Cloudy 59 15 56 13.3 90 90 VRB 7 11 29.52 1000 10 16 N/A
1:53 am 01:53 Cloudy 59 15 55 12.8 87 87 S 7 11 29.52 1000 10 16 N/A
2:04 am 02:04 Cloudy 59 15 55 12.8 87 87 VRB 6 9 29.51 999 10 16 N/A
2:53 am 02:53 Cloudy 59 15 56 13.3 90 90 SSW 8 13 29.48 998 10 16 N/A
3:21 am 03:21 Cloudy 60 15.6 55 12.8 84 84 SSW 12 19 29.48 998 10 16 N/A
3:53 am 03:53 Mostly Cloudy 60 15.6 54 12.2 80 80 SW 14 22 29.46 998 10 16 N/A
4:12 am 04:12 Mostly Cloudy 59 15 53 11.7 81 81 SW 10 17 29.47 998 10 16 N/A
4:53 am 04:53 Clear 58 14.4 50 10 75 75 SW 14 22 29.47 998 10 16 N/A
5:53 am 05:53 Clear 56 13.3 45 7.2 67 67 SW 16 26 29.47 998 10 16 N/A
6:53 am 06:53 Clear 55 12.8 40 4.4 57 57 SW 18 30 29.48 998 10 16 N/A
7:53 am 07:53 Cloudy 51 10.6 39 3.9 64 64 W 28 44 29.53 1000 10 16 N/A
8:53 am 08:53 Cloudy 44 6.7 33 0.6 65 65 W 26 43 29.62 1003 10 16 N/A
9:22 am 09:22 Cloudy with Light Rain 41 5 33 0.6 73 73 W 25 41 29.68 1005 10 16 N/A
9:53 am 09:53 Cloudy 40 4.4 31 -0.6 70 70 WSW 25 41 29.69 1006 10 16 N/A
10:34 am 10:34 Cloudy 39 3.9 29 -1.7 67 67 W 28 44 29.75 1008 10 16 N/A
10:53 am 10:53 Cloudy 39 3.9 29 -1.7 67 67 WSW 23 37 29.75 1008 10 16 N/A
11:53 am 11:53 Cloudy 39 3.9 30 -1.1 70 70 WSW 25 41 29.79 1009 10 16 N/A
12:50 pm 12:50 Cloudy 39 4 30 -1 70 70 W 24 39 29.83 1010 10 16 N/A
12:53 pm 12:53 Cloudy 40 4.4 29 -1.7 65 65 W 28 44 29.82 1010 10 16 N/A
1:06 pm 13:06 Cloudy 39 3.9 29 -1.7 67 67 WSW 26 43 29.84 1011 10 16 N/A
1:29 pm 13:29 Cloudy with Light Rain 39 3.9 29 -1.7 67 67 W 21 33 29.85 1011 10 16 N/A
1:53 pm 13:53 Cloudy 40 4.4 28 -2.2 63 63 WSW 24 39 29.84 1011 10 16 N/A
2:53 pm 14:53 Mostly Cloudy 42 5.6 27 -2.8 55 55 W 24 39 29.86 1011 10 16 N/A
3:53 pm 15:53 Mostly Sunny 43 6.1 24 -4.4 47 47 W 30 48 29.89 1012 10 16 N/A
4:53 pm 16:53 Sunny with Light Rain 43 6.1 19 -7.2 38 38 W 21 33 29.93 1013 10 16 N/A
5:53 pm 17:53 Sunny with Light Rain 41 5 20 -6.7 43 43 W 24 39 29.95 1014 10 16 N/A
6:53 pm 18:53 Clear 39 3.9 19 -7.2 45 45 W 18 30 30.00 1016 10 16 N/A
7:53 pm 19:53 Clear 36 2.2 17 -8.3 46 46 W 17 28 30.05 1018 10 16 N/A
8:53 pm 20:53 Clear 35 1.7 19 -7.2 52 52 W 21 33 30.08 1019 10 16 N/A
9:53 pm 21:53 Clear 34 1.1 20 -6.7 56 56 W 13 20 30.11 1020 10 16 N/A
10:53 pm 22:53 Clear 32 undefined 17 -8.3 54 54 W 17 28 30.14 1021 10 16 N/A
11:53 pm 23:53 Clear 31 -0.6 17 -8.3 56 56 W 15 24 30.16 1021 10 16 N/A

Powered by AerisWeather